Hourly Data Report for April 29, 2004

SHERBROOKE A
QUEBEC

45°26'00.000" N
71°41'00.000" W
241.40 m
7028124
71610
YSC

Download Data

Hourly Data (April 2004)
Hourly Data Report for April 29, 2004
TIME
LST
Temp Definition
°C
Dew Point Definition
°C
Rel Hum Definition
%
Precip. Amount Definition
mm

Wind Dir Definition
10's deg

Wind Spd Definition
km/h
Visibility Definition
km
Stn Press Definition
kPa
Hmdx Definition


Wind Chill Definition


Weather Definition


00:00 -2.7 -5.8 79     0 15.0 99.30      
01:00 -2.6 -5.5 80     0 15.0 99.33      
02:00 -0.3 -4.6 73   5 4 15.0 99.34   -2  
03:00 0.5 -4.5 69   8 4 15.0 99.27      
04:00 0.3 -1.8 86   13 6 15.0 99.25     Moderate Freezing Rain
05:00 0.9 -1.3 85   1 9 15.0 99.15      
06:00 2.8 -0.5 79   10 4 15.0 99.11      
07:00 4.5 0.8 77     0 24.1 99.13     Mostly Cloudy
08:00 7.0 -1.1 56   17 7 24.1 99.06     Cloudy
09:00 9.4 -0.4 50   17 9 24.1 99.02     Cloudy
10:00 15.1 1.9 41   21 20 24.1 98.92     Mostly Cloudy
11:00 17.0 2.4 37   20 20 24.1 98.84     Mostly Cloudy
12:00 18.8 3.7 37   20 28 24.1 98.72     Mostly Cloudy
13:00 21.1 5.1 35   19 22 24.1 98.71     Mostly Cloudy
14:00 21.8 5.4 34   20 22 24.1 98.66     Mostly Cloudy
15:00 23.5 6.6 34   22 22 24.1 98.60     Mostly Cloudy
16:00 24.7 7.7 34   22 19 24.1 98.57 25   Mostly Cloudy
17:00 23.8 7.1 34   21 17 15.0 98.56      
18:00 23.7 7.4 35   23 19 15.0 98.56      
19:00 20.9 7.3 41   22 6 15.0 98.62      
20:00 19.1 7.1 46   21 6 15.0 98.74      
21:00 16.7 6.8 52   18 6 15.0 98.79      
22:00 12.5 6.3 66   20 6 15.0 98.83      
23:00 9.8 5.4 74   21 6 15.0 98.90      

Notes on Data Quality.

Legend

  • E = Estimated
  • M = Missing
  • NA = Not Available*
  • [empty] = Indicates an unobserved value
Date modified: